OE6JUE Weather Reports


Display with metric or nautical units.
time (UTC)temp
F
wind
direction
speed
MPH
gust
MPH
rain 1hr
in
rain 24hr
in
rain mn
in
humidity
%
barometer
mb
20260506155116 67 225 3.0 12.0 0.00 0.00 0.00 55 1010.0
20260506154616 68 225 4.0 14.0 0.00 0.00 0.00 54 1010.0
20260506154116 68 180 5.0 13.0 0.00 0.00 0.00 55 1010.1
20260506153616 67 225 7.0 17.0 0.00 0.00 0.00 54 1010.2
20260506153115 68 180 9.0 26.0 0.00 0.00 0.00 54 1010.0
20260506152615 68 180 3.0 10.0 0.00 0.00 0.00 55 1010.0
20260506152115 68 135 4.0 11.0 0.00 0.00 0.00 54 1009.9
20260506151615 68 158 5.0 15.0 0.00 0.00 0.00 54 1010.1
20260506151116 68 158 3.0 11.0 0.00 0.00 0.00 54 1010.1
20260506150615 67 180 7.0 17.0 0.00 0.00 0.00 54 1010.2
20260506150116 68 135 5.0 13.0 0.00 0.00 0.00 54 1009.9
20260506145616 68 225 7.0 21.0 0.00 0.00 0.00 53 1010.0
20260506145115 68 270 4.0 10.0 0.00 0.00 0.00 54 1009.9
20260506144616 68 158 6.0 17.0 0.00 0.00 0.00 53 1010.0
20260506144115 68 180 5.0 13.0 0.00 0.00 0.00 53 1009.9
20260506143615 69 180 5.0 17.0 0.00 0.00 0.00 52 1010.1
20260506143116 70 180 8.0 24.0 0.00 0.00 0.00 50 1010.0
20260506142616 71 225 5.0 17.0 0.00 0.00 0.00 50 1009.9
20260506142115 71 225 3.0 8.0 0.00 0.00 0.00 51 1009.9
20260506141615 70 180 8.0 25.0 0.00 0.00 0.00 50 1009.9
20260506141115 71 135 9.0 27.0 0.00 0.00 0.00 50 1009.8
20260506140615 71 180 8.0 24.0 0.00 0.00 0.00 50 1009.9
20260506140115 71 135 6.0 17.0 0.00 0.00 0.00 49 1010.0
20260506135615 72 180 8.0 31.0 0.00 0.00 0.00 48 1010.0
20260506135115 71 180 6.0 17.0 0.00 0.00 0.00 50 1010.2
20260506134556 71 180 6.0 18.0 0.00 0.00 0.00 49 1010.1
20260506134057 71 90 4.0 15.0 0.00 0.00 0.00 47 1010.1
20260506133556 73 135 6.0 19.0 0.00 0.00 0.00 44 1009.9
20260506133055 72 180 7.0 18.0 0.00 0.00 0.00 46 1009.9
20260506132556 73 135 6.0 19.0 0.00 0.00 0.00 43 1010.0
20260506132056 73 180 6.0 20.0 0.00 0.00 0.00 43 1010.0
20260506131556 73 180 5.0 16.0 0.00 0.00 0.00 42 1010.1
20260506131056 73 45 5.0 13.0 0.00 0.00 0.00 42 1010.1
20260506130555 73 158 7.0 19.0 0.00 0.00 0.00 42 1010.2
20260506130056 73 180 4.0 13.0 0.00 0.00 0.00 41 1010.2
20260506125556 73 180 4.0 13.0 0.00 0.00 0.00 41 1010.2
20260506125056 73 270 7.0 23.0 0.00 0.00 0.00 41 1010.3
20260506124556 74 135 7.0 20.0 0.00 0.00 0.00 41 1010.0
20260506124055 74 135 7.0 21.0 0.00 0.00 0.00 40 1010.2
20260506123556 74 135 7.0 21.0 0.00 0.00 0.00 40 1010.2
20260506123055 75 180 6.0 18.0 0.00 0.00 0.00 40 1010.3
20260506122556 74 180 3.0 11.0 0.00 0.00 0.00 40 1010.5
20260506122056 74 180 4.0 13.0 0.00 0.00 0.00 41 1010.6
20260506121557 74 180 4.0 13.0 0.00 0.00 0.00 41 1010.6
20260506121056 74 180 5.0 15.0 0.00 0.00 0.00 41 1010.5
20260506120557 72 68 3.0 9.0 0.00 0.00 0.00 44 1010.5
20260506120055 74 180 5.0 14.0 0.00 0.00 0.00 41 1010.4
20260506115556 74 180 5.0 14.0 0.00 0.00 0.00 41 1010.4
20260506115056 74 180 5.0 14.0 0.00 0.00 0.00 40 1010.5
20260506114555 74 135 3.0 8.0 0.00 0.00 0.00 41 1010.5
20260506114055 72 135 3.0 9.0 0.00 0.00 0.00 46 1010.7
20260506113556 72 135 3.0 9.0 0.00 0.00 0.00 46 1010.7
20260506113055 71 180 5.0 15.0 0.00 0.00 0.00 47 1010.8
20260506112555 71 180 6.0 15.0 0.00 0.00 0.00 46 1010.9
20260506112056 72 135 4.0 11.0 0.00 0.00 0.00 45 1011.0
20260506111556 72 135 4.0 11.0 0.00 0.00 0.00 45 1011.0
20260506111056 71 225 4.0 13.0 0.00 0.00 0.00 45 1010.9
20260506110555 71 135 3.0 11.0 0.00 0.00 0.00 44 1011.2
20260506110055 70 135 4.0 12.0 0.00 0.00 0.00 49 1011.4
20260506105555 70 135 4.0 12.0 0.00 0.00 0.00 49 1011.4
20260506105056 70 180 2.0 5.0 0.00 0.00 0.00 49 1011.4
20260506104555 70 180 4.0 9.0 0.00 0.00 0.00 49 1011.5
20260506104056 70 135 3.0 10.0 0.00 0.00 0.00 49 1011.4
20260506103556 70 135 3.0 10.0 0.00 0.00 0.00 49 1011.4
20260506103055 70 90 4.0 12.0 0.00 0.00 0.00 49 1011.6
20260506102555 70 180 4.0 11.0 0.00 0.00 0.00 49 1011.5
20260506102055 70 225 2.0 8.0 0.00 0.00 0.00 50 1011.6
20260506101555 70 225 2.0 8.0 0.00 0.00 0.00 50 1011.6
20260506101055 69 180 4.0 12.0 0.00 0.00 0.00 48 1011.7
20260506100555 69 135 2.0 8.0 0.00 0.00 0.00 46 1011.6
20260506100055 71 180 4.0 10.0 0.00 0.00 0.00 44 1011.6
20260506095555 71 180 4.0 10.0 0.00 0.00 0.00 44 1011.6
20260506095055 71 225 6.0 16.0 0.00 0.00 0.00 43 1011.5
20260506094555 72 135 4.0 11.0 0.00 0.00 0.00 42 1011.4
20260506094055 74 180 4.0 11.0 0.00 0.00 0.00 37 1011.5
20260506093556 74 180 4.0 11.0 0.00 0.00 0.00 37 1011.5
20260506093055 74 180 5.0 15.0 0.00 0.00 0.00 36 1011.4
20260506092555 74 135 5.0 15.0 0.00 0.00 0.00 35 1011.2
20260506092055 74 180 4.0 11.0 0.00 0.00 0.00 35 1011.1
20260506091555 74 180 4.0 11.0 0.00 0.00 0.00 35 1011.1
20260506091055 75 158 5.0 14.0 0.00 0.00 0.00 33 1011.1
20260506090555 74 360 1.0 4.0 0.00 0.00 0.00 34 1011.2
20260506090055 74 158 4.0 12.0 0.00 0.00 0.00 35 1011.4
20260506085555 74 158 4.0 12.0 0.00 0.00 0.00 35 1011.4
20260506085056 75 180 3.0 10.0 0.00 0.00 0.00 35 1011.2
20260506084556 74 180 5.0 13.0 0.00 0.00 0.00 36 1011.3
20260506084056 74 135 3.0 8.0 0.00 0.00 0.00 35 1011.3
20260506083555 74 135 3.0 8.0 0.00 0.00 0.00 35 1011.3
20260506083055 73 135 2.0 5.0 0.00 0.00 0.00 36 1011.3
20260506082555 74 270 4.0 12.0 0.00 0.00 0.00 40 1011.3
20260506082055 74 90 2.0 4.0 0.00 0.00 0.00 40 1011.4
20260506081556 74 90 2.0 4.0 0.00 0.00 0.00 40 1011.4
20260506081055 74 180 2.0 6.0 0.00 0.00 0.00 40 1011.4
20260506080555 73 180 1.0 4.0 0.00 0.00 0.00 41 1011.4
20260506073055 71 113 1.0 3.0 0.00 0.00 0.00 48 1011.6
20260506072555 71 90 1.0 4.0 0.00 0.00 0.00 48 1011.4
20260506072055 70 180 2.0 4.0 0.00 0.00 0.00 48 1011.4
20260506071555 70 180 2.0 4.0 0.00 0.00 0.00 48 1011.4
20260506071056 70 135 1.0 4.0 0.00 0.00 0.00 49 1011.4
20260506070555 69 45 1.0 3.0 0.00 0.00 0.00 50 1011.5
20260506062055 64 360 1.0 2.0 0.00 0.00 0.00 53 1011.7
20260506061555 64 360 1.0 2.0 0.00 0.00 0.00 53 1011.7
20260506061055 62 23 2.0 6.0 0.00 0.00 0.00 57 1011.7
20260506060555 62 360 2.0 5.0 0.00 0.00 0.00 58 1011.5
20260506051055 65 360 0.0 1.0 0.00 0.00 0.00 61 1011.5
20260506050555 63 135 0.0 1.0 0.00 0.00 0.00 67 1011.5
20260506045055 60 270 0.0 2.0 0.00 0.00 0.00 79 1011.5
20260506044555 58 360 0.0 0.0 0.00 0.00 0.00 84 1011.5
20260506044055 55 270 0.0 0.0 0.00 0.00 0.00 88 1011.4
20260506043555 55 270 0.0 0.0 0.00 0.00 0.00 88 1011.4
20260506043055 52 45 0.0 0.0 0.00 0.00 0.00 91 1011.3
20260506042554 50 270 0.0 0.0 0.00 0.00 0.00 91 1011.4
20260506042054 48 270 0.0 0.0 0.00 0.00 0.00 90 1011.2
20260506041555 47 225 1.0 2.0 0.00 0.00 0.00 90 1011.2
20260506041054 47 360 0.0 1.0 0.00 0.00 0.00 90 1011.4
20260506040555 47 360 0.0 1.0 0.00 0.00 0.00 90 1011.4
20260506040055 48 225 1.0 3.0 0.00 0.00 0.00 90 1011.4
20260506035555 48 225 1.0 3.0 0.00 0.00 0.00 90 1011.4
20260506035055 47 270 0.0 2.0 0.00 0.00 0.00 90 1011.2
20260506034554 47 225 1.0 2.0 0.00 0.00 0.00 90 1011.1
20260506034055 47 225 0.0 0.0 0.00 0.00 0.00 90 1011.1
20260506033555 47 225 0.0 0.0 0.00 0.00 0.00 90 1011.1
20260506033054 47 180 1.0 2.0 0.00 0.00 0.00 90 1011.2
20260506032554 48 180 0.0 0.0 0.00 0.00 0.00 90 1011.0
20260506032055 48 225 0.0 0.0 0.00 0.00 0.00 90 1011.2
20260506031554 48 225 0.0 0.0 0.00 0.00 0.00 90 1011.2
20260506031055 48 315 0.0 2.0 0.00 0.00 0.00 90 1011.2
20260506030554 48 315 0.0 2.0 0.00 0.00 0.00 90 1011.2
20260506030055 47 315 0.0 1.0 0.00 0.00 0.00 88 1011.2
20260506025555 47 315 0.0 1.0 0.00 0.00 0.00 88 1011.2
20260506025055 47 360 1.0 2.0 0.00 0.00 0.00 88 1011.1
20260506024554 48 180 0.0 0.0 0.00 0.00 0.00 88 1010.9
20260506024054 48 180 0.0 0.0 0.00 0.00 0.00 88 1011.0
20260506023555 48 180 0.0 0.0 0.00 0.00 0.00 88 1011.0
20260506023054 48 315 0.0 0.0 0.00 0.00 0.00 88 1011.1
20260506022554 48 360 1.0 2.0 0.00 0.00 0.00 87 1010.8
20260506022054 48 180 0.0 0.0 0.00 0.00 0.00 87 1010.9
20260506021554 48 180 0.0 0.0 0.00 0.00 0.00 87 1010.9
20260506021054 49 180 0.0 1.0 0.00 0.00 0.00 87 1010.7
20260506020554 49 180 0.0 1.0 0.00 0.00 0.00 87 1010.7
20260506020054 49 225 0.0 0.0 0.00 0.00 0.00 87 1010.8
20260506015554 49 225 0.0 0.0 0.00 0.00 0.00 87 1010.8
20260506015054 49 225 0.0 1.0 0.00 0.00 0.00 86 1010.8
20260506014554 49 45 1.0 2.0 0.00 0.00 0.00 86 1010.7
20260506014055 49 360 1.0 3.0 0.00 0.00 0.00 86 1010.6
20260506013554 49 360 1.0 3.0 0.00 0.00 0.00 86 1010.6
20260506013054 50 225 1.0 2.0 0.00 0.00 0.00 86 1010.6
20260506012554 50 225 1.0 2.0 0.00 0.00 0.00 86 1010.6
20260506012054 49 270 0.0 1.0 0.00 0.00 0.00 85 1010.3
20260506011554 49 270 0.0 1.0 0.00 0.00 0.00 85 1010.3
20260506011054 50 225 0.0 0.0 0.00 0.00 0.00 85 1010.5
20260506010555 49 225 0.0 1.0 0.00 0.00 0.00 84 1010.4
20260506010054 50 360 0.0 2.0 0.00 0.00 0.00 84 1010.4
20260506005554 50 360 0.0 2.0 0.00 0.00 0.00 84 1010.4
20260506005054 50 225 0.0 2.0 0.00 0.00 0.00 84 1010.4
20260506004555 50 225 0.0 2.0 0.00 0.00 0.00 84 1010.4
20260506004054 50 45 1.0 2.0 0.00 0.00 0.00 84 1010.4
20260506003554 50 45 1.0 2.0 0.00 0.00 0.00 84 1010.4
20260506003055 50 225 1.0 2.0 0.00 0.00 0.00 83 1010.2
20260506002554 50 225 1.0 2.0 0.00 0.00 0.00 83 1010.2
20260506002055 51 225 0.0 2.0 0.00 0.00 0.00 83 1010.4
20260506001554 51 225 0.0 2.0 0.00 0.00 0.00 83 1010.4
20260506001054 51 270 1.0 2.0 0.00 0.00 0.00 83 1010.4
20260506000554 51 225 1.0 2.0 0.00 0.00 0.00 82 1010.4
20260506000054 51 203 1.0 2.0 0.00 0.00 0.00 81 1010.4
20260505235554 51 203 1.0 2.0 0.00 0.00 0.00 81 1010.4
20260505235054 51 315 0.0 0.0 0.00 0.00 0.00 81 1010.3
20260505234554 52 180 0.0 2.0 0.00 0.00 0.00 82 1010.5
20260505234054 52 270 1.0 2.0 0.00 0.00 0.00 81 1010.5
20260505204322 58 135 2.0 5.0 0.00 0.00 0.00 66 1010.9
20260505203822 59 315 1.0 2.0 0.00 0.00 0.00 65 1010.7
20260505203322 59 315 1.0 3.0 0.00 0.00 0.00 65 1010.8
20260505202822 59 315 1.0 2.0 0.00 0.00 0.00 64 1011.0
20260505202326 60 360 1.0 2.0 0.00 0.00 0.00 64 1010.9
20260505201822 60 135 1.0 3.0 0.00 0.00 0.00 64 1010.9
20260505201322 60 225 3.0 8.0 0.00 0.00 0.00 63 1010.8
20260505200822 60 180 2.0 6.0 0.00 0.00 0.00 63 1010.8
20260505200322 60 135 1.0 4.0 0.00 0.00 0.00 63 1010.8
20260505195822 60 180 2.0 4.0 0.00 0.00 0.00 63 1010.8
20260505195322 60 45 1.0 4.0 0.00 0.00 0.00 63 1010.7
20260505194944 60 180 2.0 5.0 0.00 0.00 0.00 63 1010.7
20260505194746 60 180 2.0 5.0 0.00 0.00 0.00 63 1010.7
20260505194410 60 135 3.0 11.0 0.00 0.00 0.00 63 1010.7
20260505194216 60 135 3.0 11.0 0.00 0.00 0.00 63 1010.7
20260505193720 60 180 1.0 4.0 0.00 0.00 0.00 62 1010.8
20260505193231 60 203 2.0 8.0 0.00 0.00 0.00 62 1010.7
20260505192711 61 180 2.0 5.0 0.00 0.00 0.00 62 1010.7
20260505192211 61 203 2.0 7.0 0.00 0.00 0.00 61 1010.7
20260505191711 61 180 4.0 10.0 0.00 0.00 0.00 61 1010.8
20260505191211 61 180 5.0 14.0 0.00 0.00 0.00 61 1010.7
20260505190711 61 158 3.0 7.0 0.00 0.00 0.00 61 1010.8
20260505190211 61 135 3.0 9.0 0.00 0.00 0.00 61 1010.7
20260505185836 61 180 2.0 7.0 0.00 0.00 0.00 61 1010.8
20260505180643 63 180 4.0 11.0 0.00 0.00 0.00 57 1010.6
20260505180213 63 225 3.0 10.0 0.00 0.00 0.00 56 1010.7
20260505175713 63 225 3.0 8.0 0.00 0.00 0.00 56 1010.7
20260505175213 63 180 2.0 8.0 0.00 0.00 0.00 55 1010.6
20260505174713 64 180 4.0 12.0 0.00 0.00 0.00 51 1010.7
20260505174213 64 225 4.0 11.0 0.00 0.00 0.00 51 1010.7
20260505173714 64 180 4.0 12.0 0.00 0.00 0.00 51 1010.8
20260505173214 64 225 5.0 15.0 0.00 0.00 0.00 51 1010.7
20260505172713 64 180 3.0 9.0 0.00 0.00 0.00 50 1010.7
20260505172213 65 135 3.0 11.0 0.00 0.00 0.00 50 1010.8
20260505171713 65 135 4.0 12.0 0.00 0.00 0.00 50 1010.7
20260505171213 65 180 4.0 11.0 0.00 0.00 0.00 50 1010.7
20260505170713 65 180 6.0 16.0 0.00 0.00 0.00 50 1010.9
20260505170213 65 135 4.0 10.0 0.00 0.00 0.00 49 1010.8
20260505165713 66 225 3.0 10.0 0.00 0.00 0.00 48 1010.8
20260505165213 66 180 4.0 12.0 0.00 0.00 0.00 47 1010.9
20260505164714 67 135 5.0 15.0 0.00 0.00 0.00 46 1010.9
20260505164213 67 180 5.0 16.0 0.00 0.00 0.00 46 1010.9
20260505163713 67 180 4.0 12.0 0.00 0.00 0.00 45 1010.8
20260505163213 68 180 4.0 11.0 0.00 0.00 0.00 45 1010.8
20260505162713 68 180 3.0 9.0 0.00 0.00 0.00 44 1010.9
20260505162213 69 90 3.0 8.0 0.00 0.00 0.00 43 1010.9
20260505161713 69 135 4.0 13.0 0.00 0.00 0.00 44 1010.9
20260505161213 68 180 6.0 22.0 0.00 0.00 0.00 44 1011.0
20260505160713 68 180 5.0 14.0 0.00 0.00 0.00 45 1011.1